Regional Weather Roundup
Issued by NWS Newport/Morehead, NC

Home | Current Version | Previous Version | Text Only | Print | Product List | Glossary On
Versions: 1 2 3 4 5 6 7 8 9 10 11 12 13 14 15 16 17 18 19 20 21 22 23 24 25 26 27 28 29 30 31 32 33 34 35 36 37 38 39 40 41 42 43 44 45 46 47 48 49 50
000
ASUS42 KMHX 202322
RWRMHX
WEATHER ROUNDUP FOR EASTERN NORTH CAROLINA
NATIONAL WEATHER SERVICE NEWPORT/MOREHEAD CITY NC
600 PM EST SAT DEC 20 2014

NOTE: "FAIR" INDICATES FEW OR NO CLOUDS BELOW 12,000 FEET
WITH NO SIGNIFICANT WEATHER AND/OR OBSTRUCTIONS TO VISIBILITY

NCZ015>017-031-032-045>047-102-103-210000-
NORTH COAST

CITY           SKY/WX    TMP DP  RH WIND       PRES   REMARKS
EDENTON        CLOUDY    39  33  80 CALM      30.28R
ELIZABETH CITY CLOUDY    44  31  60 NE3       30.27S
KITTY HAWK     PTCLDY    40  33  75 N3        30.25R
MANTEO         MOCLDY    40  33  76 N7        30.27R

$$

NCZ045>047-081-094-103-104-210000-
CENTRAL COAST

CITY           SKY/WX    TMP DP  RH WIND       PRES   REMARKS
FRISCO         CLOUDY    42  37  82 VRB6      30.25R
SWANQUARTER      N/A     41 N/A N/A NE3       30.24R

$$

NCZ095-097-098-100-101-210000-
SOUTHERN COAST

CITY           SKY/WX    TMP DP  RH WIND       PRES   REMARKS
BEAUFORT       CLOUDY    41  38  89 NE3       30.27R
CEDAR ISLAND     N/A     43 N/A N/A N9        30.30S
JACKSONVILLE   MOCLDY    40  37  89 NE8       30.26R
PINEY ISLAND   CLOUDY    45  36  70 NE8       30.26R
WILMINGTON     CLOUDY    42  40  92 NE8       30.25R


$$

NCZ011>013-027>030-043-044-078>080-089-090>093-098-210000-
COASTAL PLAIN

CITY           SKY/WX    TMP DP  RH WIND       PRES   REMARKS
AHOSKIE        CLOUDY    36  31  82 CALM      30.28S
CLINTON        CLOUDY    40  38  93 CALM      30.27R
ELIZABETHTOWN  CLOUDY    40  39  96 CALM      30.26R FOG
GOLDSBORO      CLOUDY    39  39  98 CALM      30.26R
GREENVILLE     CLOUDY    41  34  75 CALM      30.28R
HAVELOCK       MOCLDY    39  36  89 NE5       30.27R
KENANSVILLE    CLOUDY    39  38  94 CALM      30.28R
KINSTON        CLOUDY    39  36  87 CALM      30.27S
NEW BERN       CLOUDY    42  37  82 NE5       30.27R
RICHLANDS      CLOUDY    36  34  93 CALM      30.28R
ROCKY MOUNT    CLOUDY    38  34  85 CALM      30.28R
WASHINGTON     CLOUDY    39  35  84 CALM      30.27S
WHITEVILLE     CLOUDY    42  39  88 NE6       30.24R

$$

AMZ130-135-150-152-154-156-158-170-250-252-270-ANZ085-086-088-633-658-670-210000-
MARINE OBSERVATIONS

STATION/POSITION TIME  TEMP    WIND        PRES    WAVE   SWELL
                       AIR SEA DIR/SP/G            HT/PER HT/PER
                 (UTC) (F)     (DEG/KT/KT) (MB)    (FT/S) (FT/S)
CHESAPEAKE LIGHT 2300   38      10/  6/  7 1025.8
64 E VA BEACH    2300   42 54  360/ 10/ 16 1024.2    2/ 6   2/ 6
DUCK             2300   41 46  360/ 10/ 11 1024.0
2 E DUCK         2300      47                N/A     2/ 5
10 NE DUCK       2300      52                N/A     2/ 6
OREGON INLET     2300   42 50  350/  6/ 10 1024.8
13E OREGON INLT  2300      52                N/A     3/ 5
HATTERAS CG      2300   44 51   30/  8/ 11 1024.7
DIAMOND BUOY     2300   47                 1024.0    3/ 7
17 S OCRACOKE    NOT AVBL
CAPE LOOKOUT     2300   43      10/ 11/ 13 1024.4
BEAUFORT LAB     2300   42 52   20/  3/  4 1023.7
30 SE NEW RIVER  2300   49 61   50/ 16/ 17 1024.1    3/ 5   2/10
5 SE WRIGHTSVLE  NOT AVBL
225 S CAPE HAT   2235   65 71   80/ 16/ 19 1020.6    3/ 4   2/ 7
41 SE CHARLESTON 2300   61 70   40/ 16/ 19 1020.6    5/ 5   2/11

$$



USA.gov is the U.S. government's official web portal to all federal, state and local government web resources and services.